Time,TemperatureF,DewpointF,PressureIn,WindDirection,WindDirectionDegrees,WindSpeedMPH,WindSpeedGustMPH,Humidity,HourlyPrecipIn,Conditions,Clouds,dailyrainin,SoftwareType,DateUTC
2013-05-01 00:02:00,62.0,46.8,28.02,ENE,68,0.0,0.0,58,0.00,,,0.00,WSDL version 420,2013-05-01 04:02:00,
2013-05-01 00:07:00,61.8,46.9,28.02,ENE,68,0.0,0.0,58,0.00,,,0.00,WSDL version 420,2013-05-01 04:07:00,
2013-05-01 00:12:00,61.6,46.7,28.02,ENE,68,0.0,0.0,58,0.00,,,0.00,WSDL version 420,2013-05-01 04:12:00,
2013-05-01 00:17:00,61.5,46.9,28.02,ENE,68,0.0,0.0,59,0.00,,,0.00,WSDL version 420,2013-05-01 04:17:00,
2013-05-01 00:22:00,61.3,46.9,28.02,ENE,68,0.0,0.0,59,0.00,,,0.00,WSDL version 420,2013-05-01 04:22:00,
2013-05-01 00:27:00,61.2,46.7,28.02,ENE,68,0.0,0.0,59,0.00,,,0.00,WSDL version 420,2013-05-01 04:27:00,
2013-05-01 00:32:00,61.2,46.7,28.02,ENE,68,0.0,0.0,59,0.00,,,0.00,WSDL version 420,2013-05-01 04:32:00,
2013-05-01 00:37:00,61.0,46.6,28.02,ENE,68,0.0,0.0,59,0.00,,,0.00,WSDL version 420,2013-05-01 04:37:00,
2013-05-01 00:42:00,61.0,46.6,28.02,ENE,68,0.0,0.0,59,0.00,,,0.00,WSDL version 420,2013-05-01 04:42:00,
2013-05-01 00:47:00,61.0,47.0,28.02,NE,34,0.0,0.0,60,0.00,,,0.00,WSDL version 420,2013-05-01 04:47:00,
2013-05-01 00:52:00,60.8,46.8,28.02,ENE,68,0.0,0.0,60,0.00,,,0.00,WSDL version 420,2013-05-01 04:52:00,
2013-05-01 00:57:00,60.6,46.8,28.02,NNE,23,0.0,0.0,61,0.00,,,0.00,WSDL version 420,2013-05-01 04:57:00,
2013-05-01 01:02:00,60.4,46.9,28.02,NNE,23,0.0,0.0,61,0.00,,,0.00,WSDL version 420,2013-05-01 05:02:00,
2013-05-01 01:07:00,60.4,46.9,28.02,NNE,23,0.0,0.0,61,0.00,,,0.00,WSDL version 420,2013-05-01 05:07:00,
2013-05-01 01:12:00,60.3,46.8,28.02,NNE,23,0.0,0.0,61,0.00,,,0.00,WSDL version 420,2013-05-01 05:12:00,
2013-05-01 01:17:00,60.3,47.2,28.02,NNE,23,0.0,0.0,62,0.00,,,0.00,WSDL version 420,2013-05-01 05:17:00,
2013-05-01 01:22:00,60.1,47.1,28.02,NNE,23,0.0,0.0,62,0.00,,,0.00,WSDL version 420,2013-05-01 05:22:00,
2013-05-01 01:27:00,60.1,47.0,28.02,NNE,23,0.0,0.0,62,0.00,,,0.00,WSDL version 420,2013-05-01 05:27:00,
2013-05-01 01:32:00,60.0,46.9,28.02,NNE,23,0.0,0.0,62,0.00,,,0.00,WSDL version 420,2013-05-01 05:32:00,
2013-05-01 01:37:00,59.8,46.8,28.02,NNE,23,0.0,0.0,62,0.00,,,0.00,WSDL version 420,2013-05-01 05:37:00,
2013-05-01 01:42:00,59.7,46.8,28.02,NNE,23,0.0,0.0,63,0.00,,,0.00,WSDL version 420,2013-05-01 05:42:00,
2013-05-01 01:47:00,59.5,46.9,28.02,NNE,23,0.0,0.0,63,-99.99,,,-99.99,WSDL version 420,2013-05-01 05:47:00,
2013-05-01 01:52:00,59.5,46.9,28.02,NNE,23,0.0,0.0,63,0.00,,,0.00,WSDL version 420,2013-05-01 05:52:00,
2013-05-01 01:57:00,59.4,46.8,28.02,NNE,23,0.0,0.0,63,0.00,,,0.00,WSDL version 420,2013-05-01 05:57:00,
2013-05-01 02:02:00,59.5,46.9,28.02,NNE,23,0.0,0.0,63,0.00,,,0.00,WSDL version 420,2013-05-01 06:02:00,
2013-05-01 02:07:00,59.5,46.9,28.02,NNE,23,0.0,0.0,63,0.00,,,0.00,WSDL version 420,2013-05-01 06:07:00,
2013-05-01 02:12:00,59.4,46.8,28.02,NNE,23,0.0,0.0,63,0.00,,,0.00,WSDL version 420,2013-05-01 06:12:00,
2013-05-01 02:17:00,59.4,47.1,28.02,NNE,23,0.0,0.0,64,0.00,,,0.00,WSDL version 420,2013-05-01 06:17:00,
2013-05-01 02:22:00,59.3,46.9,28.02,NNE,23,0.0,0.0,63,0.00,,,0.00,WSDL version 420,2013-05-01 06:22:00,
2013-05-01 02:27:00,59.2,46.8,28.02,NNE,23,0.0,0.9,64,0.00,,,0.00,WSDL version 420,2013-05-01 06:27:00,
2013-05-01 02:32:00,59.3,47.0,28.02,NE,45,0.0,0.9,63,0.00,,,0.00,WSDL version 420,2013-05-01 06:32:00,
2013-05-01 02:37:00,59.2,47.0,28.02,NE,45,0.0,0.0,64,0.00,,,0.00,WSDL version 420,2013-05-01 06:37:00,
2013-05-01 02:42:00,59.1,47.0,28.02,NE,45,0.0,0.0,64,0.00,,,0.00,WSDL version 420,2013-05-01 06:42:00,
2013-05-01 02:47:00,59.0,46.9,28.02,NE,45,0.0,0.0,64,0.00,,,0.00,WSDL version 420,2013-05-01 06:47:00,
2013-05-01 02:52:00,58.8,46.7,28.02,NE,45,0.0,0.0,64,0.00,,,0.00,WSDL version 420,2013-05-01 06:52:00,
2013-05-01 02:57:00,58.8,46.7,28.02,NE,45,0.0,0.0,64,0.00,,,0.00,WSDL version 420,2013-05-01 06:57:00,
2013-05-01 03:02:00,58.8,46.6,28.02,NE,45,0.0,0.0,64,0.00,,,0.00,WSDL version 420,2013-05-01 07:02:00,
2013-05-01 03:07:00,58.6,46.5,28.02,NE,45,0.0,0.0,64,0.00,,,0.00,WSDL version 420,2013-05-01 07:07:00,
2013-05-01 03:12:00,58.6,46.7,28.02,NE,45,0.0,0.0,64,0.00,,,0.00,WSDL version 420,2013-05-01 07:12:00,
2013-05-01 03:17:00,58.5,46.8,28.02,NE,45,0.0,0.0,65,0.00,,,0.00,WSDL version 420,2013-05-01 07:17:00,
2013-05-01 03:22:00,58.4,46.7,28.02,ENE,68,0.0,0.0,65,0.00,,,0.00,WSDL version 420,2013-05-01 07:22:00,
2013-05-01 03:27:00,58.3,46.6,28.02,ENE,68,0.0,0.0,65,0.00,,,0.00,WSDL version 420,2013-05-01 07:27:00,
2013-05-01 03:32:00,58.3,46.6,28.02,SSE,158,0.0,0.0,65,0.00,,,0.00,WSDL version 420,2013-05-01 07:32:00,
2013-05-01 03:37:00,58.3,46.6,28.02,SSE,150,0.0,0.0,65,0.00,,,0.00,WSDL version 420,2013-05-01 07:37:00,
2013-05-01 03:42:00,58.2,46.5,28.02,SE,135,0.0,0.0,65,0.00,,,0.00,WSDL version 420,2013-05-01 07:42:00,
2013-05-01 03:47:00,58.1,46.8,28.02,SE,135,0.0,0.0,66,0.00,,,0.00,WSDL version 420,2013-05-01 07:47:00,
2013-05-01 03:52:00,58.1,46.8,28.02,ESE,113,0.0,0.0,66,0.00,,,0.00,WSDL version 420,2013-05-01 07:52:00,
2013-05-01 03:57:00,58.1,46.8,28.02,SE,135,0.0,0.0,66,0.00,,,0.00,WSDL version 420,2013-05-01 07:57:00,
2013-05-01 04:02:00,58.0,46.7,28.02,SE,135,0.0,0.0,66,0.00,,,0.00,WSDL version 420,2013-05-01 08:02:00,
2013-05-01 04:07:00,58.1,46.8,28.02,SE,135,0.0,0.0,66,0.00,,,0.00,WSDL version 420,2013-05-01 08:07:00,
2013-05-01 04:12:00,58.1,46.8,28.02,SE,135,0.0,0.0,66,0.00,,,0.00,WSDL version 420,2013-05-01 08:12:00,
2013-05-01 04:17:00,58.1,46.8,28.02,SE,135,0.0,0.0,66,0.00,,,0.00,WSDL version 420,2013-05-01 08:17:00,
2013-05-01 04:22:00,58.0,46.7,28.02,SE,135,0.0,0.0,66,0.00,,,0.00,WSDL version 420,2013-05-01 08:22:00,
2013-05-01 04:27:00,57.9,46.6,28.02,SE,135,0.0,0.0,66,0.00,,,0.00,WSDL version 420,2013-05-01 08:27:00,
2013-05-01 04:32:00,57.9,46.6,28.02,SE,135,0.0,0.0,66,0.00,,,0.00,WSDL version 420,2013-05-01 08:32:00,
2013-05-01 04:37:00,57.7,46.5,28.02,SE,135,0.0,0.0,66,0.00,,,0.00,WSDL version 420,2013-05-01 08:37:00,
2013-05-01 04:42:00,57.7,46.4,28.02,SE,135,0.0,0.0,66,0.00,,,0.00,WSDL version 420,2013-05-01 08:42:00,
2013-05-01 04:47:00,57.6,46.3,28.02,SE,135,0.0,0.0,66,0.00,,,0.00,WSDL version 420,2013-05-01 08:47:00,
2013-05-01 04:52:00,57.6,46.4,28.02,SE,135,0.0,0.0,67,0.00,,,0.00,WSDL version 420,2013-05-01 08:52:00,
2013-05-01 04:57:00,57.6,46.7,28.02,SE,135,0.0,0.0,67,0.00,,,0.00,WSDL version 420,2013-05-01 08:57:00,
2013-05-01 05:02:00,57.6,46.7,28.02,SE,135,0.0,0.0,67,0.00,,,0.00,WSDL version 420,2013-05-01 09:02:00,
2013-05-01 05:07:00,57.6,46.7,28.02,SE,135,0.0,0.0,67,0.00,,,0.00,WSDL version 420,2013-05-01 09:07:00,
2013-05-01 05:12:00,57.6,46.7,28.02,SE,135,0.0,0.0,67,0.00,,,0.00,WSDL version 420,2013-05-01 09:12:00,
2013-05-01 05:17:00,57.6,46.7,28.02,SE,135,0.0,0.0,67,0.00,,,0.00,WSDL version 420,2013-05-01 09:17:00,
2013-05-01 05:22:00,57.7,46.9,28.02,SE,135,0.0,0.0,67,0.00,,,0.00,WSDL version 420,2013-05-01 09:22:00,
2013-05-01 05:27:00,57.7,47.3,28.02,SE,135,0.0,0.0,68,0.00,,,0.00,WSDL version 420,2013-05-01 09:27:00,
2013-05-01 05:32:00,57.7,47.3,28.02,SE,135,0.0,0.0,68,0.00,,,0.00,WSDL version 420,2013-05-01 09:32:00,
2013-05-01 05:37:00,57.7,47.3,28.02,ENE,68,0.0,0.0,68,0.00,,,0.00,WSDL version 420,2013-05-01 09:37:00,
2013-05-01 05:42:00,57.7,47.3,28.02,ENE,68,0.0,0.0,68,-99.99,,,-99.99,WSDL version 420,2013-05-01 09:42:00,
2013-05-01 05:47:00,57.7,47.1,28.02,East,90,0.0,0.0,67,0.00,,,0.00,WSDL version 420,2013-05-01 09:47:00,
2013-05-01 05:52:00,57.6,46.8,28.02,NE,45,0.0,0.0,67,0.00,,,0.00,WSDL version 420,2013-05-01 09:52:00,
2013-05-01 05:57:00,57.6,46.7,28.02,ENE,68,0.0,0.0,67,0.00,,,0.00,WSDL version 420,2013-05-01 09:57:00,
2013-05-01 06:02:00,57.4,46.5,28.02,North,8,0.0,0.0,67,0.00,,,0.00,WSDL version 420,2013-05-01 10:02:00,
2013-05-01 06:07:00,57.4,46.5,28.02,NE,34,0.0,0.0,67,0.00,,,0.00,WSDL version 420,2013-05-01 10:07:00,
2013-05-01 06:12:00,57.3,46.4,28.02,NE,45,0.0,0.0,67,0.00,,,0.00,WSDL version 420,2013-05-01 10:12:00,
2013-05-01 06:17:00,57.2,46.4,28.02,NE,45,0.0,0.0,67,0.00,,,0.00,WSDL version 420,2013-05-01 10:17:00,
2013-05-01 06:22:00,57.1,46.3,28.02,NE,45,0.0,0.0,67,0.00,,,0.00,WSDL version 420,2013-05-01 10:22:00,
2013-05-01 06:27:00,57.1,46.3,28.02,NE,45,0.0,0.0,67,0.00,,,0.00,WSDL version 420,2013-05-01 10:27:00,
2013-05-01 06:32:00,57.2,46.4,28.02,WNW,293,0.0,0.0,67,0.00,,,0.00,WSDL version 420,2013-05-01 10:32:00,
2013-05-01 06:37:00,57.2,46.4,28.02,WNW,293,0.0,0.0,67,0.00,,,0.00,WSDL version 420,2013-05-01 10:37:00,
2013-05-01 06:42:00,57.2,46.4,28.02,NNW,338,0.0,0.0,67,0.00,,,0.00,WSDL version 420,2013-05-01 10:42:00,
2013-05-01 06:47:00,57.3,46.4,28.05,NNE,30,0.0,1.1,67,0.00,,,0.00,WSDL version 420,2013-05-01 10:47:00,
2013-05-01 06:52:00,57.4,46.5,28.05,ENE,68,0.0,1.1,67,0.00,,,0.00,WSDL version 420,2013-05-01 10:52:00,
2013-05-01 06:57:00,57.4,46.2,28.05,South,173,0.0,0.9,66,0.00,,,0.00,WSDL version 420,2013-05-01 10:57:00,
2013-05-01 07:02:00,57.4,46.2,28.05,SE,135,0.0,0.0,66,0.00,,,0.00,WSDL version 420,2013-05-01 11:02:00,
2013-05-01 07:07:00,57.6,46.3,28.05,ESE,113,0.0,0.0,66,0.00,,,0.00,WSDL version 420,2013-05-01 11:07:00,
2013-05-01 07:12:00,57.7,46.4,28.05,East,90,0.0,0.0,66,0.00,,,0.00,WSDL version 420,2013-05-01 11:12:00,
2013-05-01 07:17:00,57.6,45.9,28.05,ESE,113,0.0,0.0,65,0.00,,,0.00,WSDL version 420,2013-05-01 11:17:00,
2013-05-01 07:22:00,57.6,45.9,28.05,ENE,68,0.0,0.0,65,0.00,,,0.00,WSDL version 420,2013-05-01 11:22:00,
2013-05-01 07:27:00,57.6,45.9,28.05,ENE,68,0.0,0.0,65,0.00,,,0.00,WSDL version 420,2013-05-01 11:27:00,
2013-05-01 07:32:00,57.6,45.9,28.05,SW,225,0.0,0.0,65,0.00,,,0.00,WSDL version 420,2013-05-01 11:32:00,
2013-05-01 07:37:00,57.6,45.9,28.05,WNW,293,0.0,0.0,65,0.00,,,0.00,WSDL version 420,2013-05-01 11:37:00,
2013-05-01 07:42:00,57.4,45.6,28.05,ENE,68,0.0,0.0,64,0.00,,,0.00,WSDL version 420,2013-05-01 11:42:00,
2013-05-01 07:47:00,57.4,45.7,28.08,ENE,68,0.0,1.3,65,0.00,,,0.00,WSDL version 420,2013-05-01 11:47:00,
2013-05-01 07:52:00,57.6,45.9,28.08,ENE,75,2.4,3.6,65,0.00,,,0.00,WSDL version 420,2013-05-01 11:52:00,
2013-05-01 07:57:00,57.6,45.9,28.08,WNW,293,0.0,3.6,65,0.00,,,0.00,WSDL version 420,2013-05-01 11:57:00,
2013-05-01 08:02:00,57.7,46.1,28.08,NNE,14,0.0,0.0,65,0.00,,,0.00,WSDL version 420,2013-05-01 12:02:00,
2013-05-01 08:07:00,57.7,45.8,28.08,East,90,0.0,2.9,64,0.00,,,0.00,WSDL version 420,2013-05-01 12:07:00,
2013-05-01 08:12:00,57.9,45.8,28.08,North,360,0.0,2.9,64,0.00,,,0.00,WSDL version 420,2013-05-01 12:12:00,
2013-05-01 08:17:00,57.9,45.8,28.08,ENE,68,0.4,0.9,64,0.00,,,0.00,WSDL version 420,2013-05-01 12:17:00,
2013-05-01 08:22:00,58.1,46.0,28.08,SE,124,0.0,0.9,64,0.00,,,0.00,WSDL version 420,2013-05-01 12:22:00,
2013-05-01 08:27:00,58.1,46.0,28.08,ENE,68,0.0,0.9,64,0.00,,,0.00,WSDL version 420,2013-05-01 12:27:00,
2013-05-01 08:32:00,58.1,46.0,28.08,ENE,68,0.0,0.9,64,0.00,,,0.00,WSDL version 420,2013-05-01 12:32:00,
2013-05-01 08:37:00,58.2,46.1,28.08,ESE,113,0.3,0.9,64,0.00,,,0.00,WSDL version 420,2013-05-01 12:37:00,
2013-05-01 08:42:00,58.3,46.2,28.08,East,79,0.0,0.9,64,0.00,,,0.00,WSDL version 420,2013-05-01 12:42:00,
2013-05-01 08:47:00,58.4,45.9,28.08,SSE,158,0.4,1.6,63,0.00,,,0.00,WSDL version 420,2013-05-01 12:47:00,
2013-05-01 08:52:00,58.3,45.8,28.08,East,83,0.0,1.6,63,0.00,,,0.00,WSDL version 420,2013-05-01 12:52:00,
2013-05-01 08:57:00,58.6,46.0,28.08,East,90,0.0,0.0,63,0.00,,,0.00,WSDL version 420,2013-05-01 12:57:00,
2013-05-01 09:02:00,58.7,46.2,28.08,SSE,152,0.0,0.0,63,0.00,,,0.00,WSDL version 420,2013-05-01 13:02:00,
2013-05-01 09:07:00,58.8,46.1,28.08,WNW,293,1.0,2.0,62,0.00,,,0.00,WSDL version 420,2013-05-01 13:07:00,
2013-05-01 09:12:00,58.9,46.0,28.08,North,360,0.4,2.0,62,0.00,,,0.00,WSDL version 420,2013-05-01 13:12:00,
2013-05-01 09:17:00,59.1,46.1,28.08,NW,315,0.0,2.0,62,0.00,,,0.00,WSDL version 420,2013-05-01 13:17:00,
2013-05-01 09:22:00,59.2,46.2,28.08,South,188,0.0,0.9,62,0.00,,,0.00,WSDL version 420,2013-05-01 13:22:00,
2013-05-01 09:27:00,59.2,45.8,28.08,South,180,1.0,2.5,61,0.00,,,0.00,WSDL version 420,2013-05-01 13:27:00,
2013-05-01 09:32:00,59.2,45.8,28.08,SE,135,0.8,2.5,61,0.00,,,0.00,WSDL version 420,2013-05-01 13:32:00,
2013-05-01 09:37:00,59.2,45.5,28.08,NW,308,0.4,1.6,60,0.00,,,0.00,WSDL version 420,2013-05-01 13:37:00,
2013-05-01 09:42:00,59.5,45.9,28.08,NNE,23,1.0,2.0,61,0.00,,,0.00,WSDL version 420,2013-05-01 13:42:00,
2013-05-01 09:47:00,59.4,45.5,28.08,NW,308,0.0,2.0,60,0.00,,,0.00,WSDL version 420,2013-05-01 13:47:00,
2013-05-01 09:52:00,59.6,45.7,28.08,WSW,248,0.2,0.9,60,0.00,,,0.00,WSDL version 420,2013-05-01 13:52:00,
2013-05-01 09:57:00,59.9,46.0,28.08,ENE,60,0.0,0.9,60,0.00,,,0.00,WSDL version 420,2013-05-01 13:57:00,
2013-05-01 10:02:00,60.1,46.2,28.08,ENE,68,0.0,0.0,60,0.00,,,0.00,WSDL version 420,2013-05-01 14:02:00,
2013-05-01 10:07:00,60.5,46.6,28.08,NNW,338,0.0,0.0,60,0.00,,,0.00,WSDL version 420,2013-05-01 14:07:00,
2013-05-01 10:12:00,60.7,46.4,28.08,ESE,113,0.0,0.9,59,0.00,,,0.00,WSDL version 420,2013-05-01 14:12:00,
2013-05-01 10:17:00,60.8,46.4,28.11,East,83,0.4,1.1,59,0.00,,,0.00,WSDL version 420,2013-05-01 14:17:00,
2013-05-01 10:22:00,61.0,46.3,28.11,NNE,23,1.1,1.1,58,0.00,,,0.00,WSDL version 420,2013-05-01 14:22:00,
2013-05-01 10:27:00,61.2,46.2,28.11,SSW,203,0.0,1.1,58,0.00,,,0.00,WSDL version 420,2013-05-01 14:27:00,
2013-05-01 10:32:00,61.5,46.4,28.11,North,354,1.5,2.2,57,0.00,,,0.00,WSDL version 420,2013-05-01 14:32:00,
2013-05-01 10:37:00,61.8,46.4,28.11,NW,326,0.0,2.2,57,0.00,,,0.00,WSDL version 420,2013-05-01 14:37:00,
2013-05-01 10:42:00,61.9,46.2,28.11,NNE,30,0.3,1.1,56,0.00,,,0.00,WSDL version 420,2013-05-01 14:42:00,
2013-05-01 10:47:00,62.3,46.4,28.11,NE,53,0.0,1.1,56,0.00,,,0.00,WSDL version 420,2013-05-01 14:47:00,
2013-05-01 10:52:00,62.6,46.7,28.11,NNW,338,0.0,1.1,56,0.00,,,0.00,WSDL version 420,2013-05-01 14:52:00,
2013-05-01 10:57:00,62.5,46.6,28.11,ENE,75,0.0,1.1,56,0.00,,,0.00,WSDL version 420,2013-05-01 14:57:00,
2013-05-01 11:02:00,62.6,46.5,28.11,WSW,248,0.0,0.0,56,0.00,,,0.00,WSDL version 420,2013-05-01 15:02:00,
2013-05-01 11:07:00,62.8,46.6,28.11,East,90,0.0,0.0,55,0.00,,,0.00,WSDL version 420,2013-05-01 15:07:00,
2013-05-01 11:12:00,63.0,46.7,28.11,East,79,0.0,0.0,55,0.00,,,0.00,WSDL version 420,2013-05-01 15:12:00,
2013-05-01 11:17:00,63.3,46.8,28.11,East,83,0.0,1.3,55,0.00,,,0.00,WSDL version 420,2013-05-01 15:17:00,
2013-05-01 11:22:00,63.4,46.5,28.11,NNE,23,0.0,1.6,54,0.00,,,0.00,WSDL version 420,2013-05-01 15:22:00,
2013-05-01 11:27:00,63.9,47.1,28.11,NE,45,0.4,1.6,54,0.00,,,0.00,WSDL version 420,2013-05-01 15:27:00,
2013-05-01 11:32:00,64.2,47.2,28.11,ENE,68,0.0,1.1,54,0.00,,,0.00,WSDL version 420,2013-05-01 15:32:00,
2013-05-01 11:37:00,64.5,47.2,28.11,ENE,68,0.9,1.3,53,0.00,,,0.00,WSDL version 420,2013-05-01 15:37:00,
2013-05-01 11:42:00,64.4,46.6,28.11,ENE,75,0.0,1.3,52,0.00,,,0.00,WSDL version 420,2013-05-01 15:42:00,
2013-05-01 11:47:00,64.5,46.5,28.11,South,188,0.6,1.6,52,0.00,,,0.00,WSDL version 420,2013-05-01 15:47:00,
2013-05-01 11:52:00,64.3,46.4,28.11,WNW,293,0.0,1.6,52,0.00,,,0.00,WSDL version 420,2013-05-01 15:52:00,
2013-05-01 11:57:00,64.4,46.4,28.11,SSE,158,0.0,0.0,52,0.00,,,0.00,WSDL version 420,2013-05-01 15:57:00,
2013-05-01 12:02:00,64.7,46.9,28.11,East,90,0.0,0.0,53,0.00,,,0.00,WSDL version 420,2013-05-01 16:02:00,
2013-05-01 12:07:00,64.8,47.1,28.11,ESE,113,0.0,1.3,52,0.00,,,0.00,WSDL version 420,2013-05-01 16:07:00,
2013-05-01 12:12:00,65.1,47.4,28.11,ENE,60,0.0,1.3,52,0.00,,,0.00,WSDL version 420,2013-05-01 16:12:00,
2013-05-01 12:17:00,64.8,46.7,28.11,ENE,68,0.0,0.0,52,0.00,,,0.00,WSDL version 420,2013-05-01 16:17:00,
2013-05-01 12:22:00,64.5,46.7,28.11,ENE,68,0.0,0.0,53,0.00,,,0.00,WSDL version 420,2013-05-01 16:22:00,
2013-05-01 12:27:00,64.8,46.7,28.11,East,101,0.0,0.0,52,0.00,,,0.00,WSDL version 420,2013-05-01 16:27:00,
2013-05-01 12:32:00,64.8,46.7,28.11,NE,53,0.3,0.9,52,0.00,,,0.00,WSDL version 420,2013-05-01 16:32:00,
2013-05-01 12:37:00,65.2,46.8,28.11,East,83,0.0,0.9,51,0.00,,,0.00,WSDL version 420,2013-05-01 16:37:00,
2013-05-01 12:42:00,65.5,47.1,28.11,NE,45,0.0,0.9,52,0.00,,,0.00,WSDL version 420,2013-05-01 16:42:00,
2013-05-01 12:47:00,65.4,47.2,28.11,ENE,75,0.6,0.9,52,0.00,,,0.00,WSDL version 420,2013-05-01 16:47:00,
2013-05-01 12:52:00,65.7,47.4,28.11,ENE,68,0.0,2.0,51,0.00,,,0.00,WSDL version 420,2013-05-01 16:52:00,
2013-05-01 12:57:00,66.3,47.6,28.11,ESE,113,0.0,2.0,51,0.00,,,0.00,WSDL version 420,2013-05-01 16:57:00,
2013-05-01 13:02:00,66.1,47.5,28.11,SSW,203,2.2,2.2,51,0.00,,,0.00,WSDL version 420,2013-05-01 17:02:00,
2013-05-01 13:07:00,66.0,47.4,28.08,East,101,0.9,2.2,51,0.00,,,0.00,WSDL version 420,2013-05-01 17:07:00,
2013-05-01 13:12:00,66.4,47.2,28.08,NW,315,1.1,2.2,50,0.00,,,0.00,WSDL version 420,2013-05-01 17:12:00,
2013-05-01 13:17:00,66.4,47.4,28.08,East,90,0.9,1.1,50,0.00,,,0.00,WSDL version 420,2013-05-01 17:17:00,
2013-05-01 13:22:00,66.3,47.1,28.08,ENE,68,0.0,1.1,50,0.00,,,0.00,WSDL version 420,2013-05-01 17:22:00,
2013-05-01 13:27:00,66.6,47.4,28.08,SW,236,0.2,0.9,50,0.00,,,0.00,WSDL version 420,2013-05-01 17:27:00,
2013-05-01 13:32:00,66.4,47.3,28.08,WSW,240,1.0,1.3,50,0.00,,,0.00,WSDL version 420,2013-05-01 17:32:00,
2013-05-01 13:37:00,66.4,46.7,28.08,SSE,158,0.0,1.3,49,0.00,,,0.00,WSDL version 420,2013-05-01 17:37:00,
2013-05-01 13:42:00,66.9,47.3,28.08,WNW,293,0.0,1.3,49,0.00,,,0.00,WSDL version 420,2013-05-01 17:42:00,
2013-05-01 13:47:00,67.0,47.2,28.08,NNE,23,0.0,2.0,49,0.00,,,0.00,WSDL version 420,2013-05-01 17:47:00,
2013-05-01 13:52:00,67.5,47.5,28.08,East,90,0.0,2.0,49,0.00,,,0.00,WSDL version 420,2013-05-01 17:52:00,
2013-05-01 13:57:00,67.8,48.0,28.08,WNW,293,0.0,0.0,49,0.00,,,0.00,WSDL version 420,2013-05-01 17:57:00,
2013-05-01 14:02:00,67.2,46.8,28.08,North,360,0.0,1.3,48,0.00,,,0.00,WSDL version 420,2013-05-01 18:02:00,
2013-05-01 14:07:00,67.0,46.7,28.08,North,8,0.9,1.3,48,0.00,,,0.00,WSDL version 420,2013-05-01 18:07:00,
2013-05-01 14:12:00,66.9,46.4,28.08,ENE,68,0.9,1.3,47,0.00,,,0.00,WSDL version 420,2013-05-01 18:12:00,
2013-05-01 14:17:00,66.7,45.9,28.08,ESE,113,1.6,1.6,47,0.00,,,0.00,WSDL version 420,2013-05-01 18:17:00,
2013-05-01 14:22:00,67.1,46.2,28.08,ENE,68,0.9,1.6,47,0.00,,,0.00,WSDL version 420,2013-05-01 18:22:00,
2013-05-01 14:27:00,67.4,46.5,28.08,ENE,68,0.9,0.9,47,0.00,,,0.00,WSDL version 420,2013-05-01 18:27:00,
2013-05-01 14:32:00,67.0,45.7,28.05,NE,56,0.9,0.9,46,0.00,,,0.00,WSDL version 420,2013-05-01 18:32:00,
2013-05-01 14:37:00,66.7,45.3,28.05,SSE,158,0.7,2.2,46,0.00,,,0.00,WSDL version 420,2013-05-01 18:37:00,
2013-05-01 14:42:00,67.2,45.7,28.05,West,263,0.4,2.2,46,0.00,,,0.00,WSDL version 420,2013-05-01 18:42:00,
2013-05-01 14:47:00,67.5,45.8,28.05,SE,124,0.0,1.1,45,0.00,,,0.00,WSDL version 420,2013-05-01 18:47:00,
2013-05-01 14:52:00,67.8,45.7,28.05,NE,38,0.0,1.1,45,0.00,,,0.00,WSDL version 420,2013-05-01 18:52:00,
2013-05-01 14:57:00,67.6,45.6,28.05,SE,135,0.0,2.7,45,0.00,,,0.00,WSDL version 420,2013-05-01 18:57:00,
2013-05-01 15:03:00,67.4,45.3,28.05,NNW,338,0.0,2.2,45,0.00,,,0.00,WSDL version 420,2013-05-01 19:03:00,
2013-05-01 15:08:00,67.8,45.7,28.05,East,79,0.0,2.2,45,0.00,,,0.00,WSDL version 420,2013-05-01 19:08:00,
2013-05-01 15:13:00,68.1,46.0,28.05,SSE,158,0.0,2.2,45,0.00,,,0.00,WSDL version 420,2013-05-01 19:13:00,
2013-05-01 15:18:00,68.7,46.2,28.05,East,98,0.9,1.6,44,0.00,,,0.00,WSDL version 420,2013-05-01 19:18:00,
2013-05-01 15:23:00,68.6,45.9,28.05,North,356,0.4,1.6,44,0.00,,,0.00,WSDL version 420,2013-05-01 19:23:00,
2013-05-01 15:28:00,68.4,45.6,28.05,ESE,113,0.0,1.1,44,0.00,,,0.00,WSDL version 420,2013-05-01 19:28:00,
2013-05-01 15:33:00,68.5,45.8,28.05,NE,56,0.0,1.1,44,0.00,,,0.00,WSDL version 420,2013-05-01 19:33:00,
2013-05-01 15:38:00,68.8,45.7,28.05,East,79,0.0,1.3,43,0.00,,,0.00,WSDL version 420,2013-05-01 19:38:00,
2013-05-01 15:43:00,69.3,45.8,28.05,NNE,23,0.0,1.3,43,0.00,,,0.00,WSDL version 420,2013-05-01 19:43:00,
2013-05-01 15:48:00,69.0,45.6,28.05,North,353,0.6,1.3,43,0.00,,,0.00,WSDL version 420,2013-05-01 19:48:00,
2013-05-01 15:53:00,69.1,45.7,28.05,NNE,23,0.0,0.9,43,0.00,,,0.00,WSDL version 420,2013-05-01 19:53:00,
2013-05-01 15:58:00,68.8,45.3,28.05,ENE,68,0.0,0.0,43,0.00,,,0.00,WSDL version 420,2013-05-01 19:58:00,
2013-05-01 16:03:00,68.6,44.8,28.05,East,90,0.0,0.0,43,0.00,,,0.00,WSDL version 420,2013-05-01 20:03:00,
2013-05-01 16:08:00,68.7,44.9,28.05,NNE,23,0.0,0.0,42,0.00,,,0.00,WSDL version 420,2013-05-01 20:08:00,
2013-05-01 16:13:00,68.6,44.8,28.05,East,90,0.0,1.1,42,0.00,,,0.00,WSDL version 420,2013-05-01 20:13:00,
2013-05-01 16:18:00,68.5,45.2,28.05,NE,45,0.0,1.1,43,0.00,,,0.00,WSDL version 420,2013-05-01 20:18:00,
2013-05-01 16:23:00,68.7,45.3,28.05,South,180,0.0,0.0,43,0.00,,,0.00,WSDL version 420,2013-05-01 20:23:00,
2013-05-01 16:28:00,68.7,45.3,28.05,NE,53,0.0,0.0,43,0.00,,,0.00,WSDL version 420,2013-05-01 20:28:00,
2013-05-01 16:33:00,68.5,45.0,28.05,NE,34,0.0,0.0,42,0.00,,,0.00,WSDL version 420,2013-05-01 20:33:00,
2013-05-01 16:38:00,68.8,45.5,28.05,East,83,1.0,1.1,43,0.00,,,0.00,WSDL version 420,2013-05-01 20:38:00,
2013-05-01 16:43:00,68.9,44.9,28.05,ESE,113,1.0,1.6,42,0.00,,,0.00,WSDL version 420,2013-05-01 20:43:00,
2013-05-01 16:48:00,69.3,45.2,28.05,NE,51,0.2,2.7,42,0.00,,,0.00,WSDL version 420,2013-05-01 20:48:00,
2013-05-01 16:53:00,69.5,45.0,28.05,NE,45,0.0,2.7,42,0.00,,,0.00,WSDL version 420,2013-05-01 20:53:00,
2013-05-01 16:58:00,69.7,44.8,28.05,East,98,0.9,1.3,40,0.00,,,0.00,WSDL version 420,2013-05-01 20:58:00,
2013-05-01 17:03:00,69.9,44.9,28.05,NE,38,0.0,1.6,41,0.00,,,0.00,WSDL version 420,2013-05-01 21:03:00,
2013-05-01 17:08:00,69.8,44.4,28.05,NE,53,0.9,1.6,40,0.00,,,0.00,WSDL version 420,2013-05-01 21:08:00,
2013-05-01 17:13:00,69.6,44.3,28.05,ENE,68,2.0,2.5,40,0.00,,,0.00,WSDL version 420,2013-05-01 21:13:00,
2013-05-01 17:18:00,69.6,44.3,28.05,East,79,0.0,2.5,40,0.00,,,0.00,WSDL version 420,2013-05-01 21:18:00,
2013-05-01 17:23:00,69.8,44.1,28.05,ENE,60,0.7,2.0,40,0.00,,,0.00,WSDL version 420,2013-05-01 21:23:00,
2013-05-01 17:28:00,69.7,44.3,28.05,ENE,60,1.7,2.5,40,0.00,,,0.00,WSDL version 420,2013-05-01 21:28:00,
2013-05-01 17:33:00,69.3,44.4,28.05,NE,45,1.9,2.5,40,0.00,,,0.00,WSDL version 420,2013-05-01 21:33:00,
2013-05-01 17:38:00,69.4,44.7,28.05,ESE,113,0.0,2.0,41,0.00,,,0.00,WSDL version 420,2013-05-01 21:38:00,
2013-05-01 17:43:00,69.3,44.0,28.05,NNW,338,0.0,1.6,40,0.00,,,0.00,WSDL version 420,2013-05-01 21:43:00,
2013-05-01 17:48:00,69.2,44.5,28.05,SW,219,0.8,1.1,41,0.00,,,0.00,WSDL version 420,2013-05-01 21:48:00,
2013-05-01 17:53:00,69.0,44.3,28.05,ESE,113,1.1,2.7,41,0.00,,,0.00,WSDL version 420,2013-05-01 21:53:00,
2013-05-01 17:58:00,68.7,43.9,28.05,ENE,68,0.7,2.7,40,0.00,,,0.00,WSDL version 420,2013-05-01 21:58:00,
2013-05-01 18:03:00,68.7,43.7,28.05,NE,45,0.9,2.2,40,0.00,,,0.00,WSDL version 420,2013-05-01 22:03:00,
2013-05-01 18:08:00,68.7,44.0,28.05,ESE,105,0.7,2.0,41,0.00,,,0.00,WSDL version 420,2013-05-01 22:08:00,
2013-05-01 18:13:00,68.5,44.1,28.05,ENE,75,0.0,1.6,41,0.00,,,0.00,WSDL version 420,2013-05-01 22:13:00,
2013-05-01 18:18:00,68.3,43.7,28.05,NE,56,1.3,1.6,41,0.00,,,0.00,WSDL version 420,2013-05-01 22:18:00,
2013-05-01 18:23:00,68.1,44.1,28.05,ENE,68,0.0,1.6,42,0.00,,,0.00,WSDL version 420,2013-05-01 22:23:00,
2013-05-01 18:28:00,67.9,44.0,28.05,SSE,158,0.0,1.6,42,0.00,,,0.00,WSDL version 420,2013-05-01 22:28:00,
2013-05-01 18:33:00,67.8,44.3,28.05,ENE,68,0.0,0.0,43,0.00,,,0.00,WSDL version 420,2013-05-01 22:33:00,
2013-05-01 18:38:00,67.6,44.4,28.05,NNE,23,0.0,0.9,43,0.00,,,0.00,WSDL version 420,2013-05-01 22:38:00,
2013-05-01 18:43:00,67.5,44.2,28.05,NE,45,0.0,0.9,43,0.00,,,0.00,WSDL version 420,2013-05-01 22:43:00,
2013-05-01 18:48:00,67.2,44.0,28.05,NNE,23,0.0,0.0,43,0.00,,,0.00,WSDL version 420,2013-05-01 22:48:00,
2013-05-01 18:53:00,67.0,43.8,28.05,NW,326,0.0,0.0,43,0.00,,,0.00,WSDL version 420,2013-05-01 22:53:00,
2013-05-01 18:58:00,62.6,40.4,28.05,NE,45,0.6,0.9,46,0.00,,,0.00,WSDL version 420,2013-05-01 22:58:00,
2013-05-01 19:03:00,66.9,43.7,28.05,East,90,0.0,0.9,43,0.00,,,0.00,WSDL version 420,2013-05-01 23:03:00,
2013-05-01 19:08:00,66.7,43.6,28.05,ENE,68,0.9,0.9,43,0.00,,,0.00,WSDL version 420,2013-05-01 23:08:00,
2013-05-01 19:13:00,66.7,43.6,28.05,NE,45,0.0,0.9,43,0.00,,,0.00,WSDL version 420,2013-05-01 23:13:00,
2013-05-01 19:18:00,66.5,43.9,28.05,ESE,113,0.0,0.9,44,0.00,,,0.00,WSDL version 420,2013-05-01 23:18:00,
2013-05-01 19:23:00,66.2,43.7,28.05,NE,45,0.0,0.0,44,0.00,,,0.00,WSDL version 420,2013-05-01 23:23:00,
2013-05-01 19:28:00,66.2,43.7,28.05,ENE,68,1.3,1.3,44,0.00,,,0.00,WSDL version 420,2013-05-01 23:28:00,
2013-05-01 19:33:00,66.0,43.5,28.05,ENE,68,1.3,1.3,44,0.00,,,0.00,WSDL version 420,2013-05-01 23:33:00,
2013-05-01 19:38:00,66.0,44.0,28.05,NE,45,0.0,1.3,45,0.00,,,0.00,WSDL version 420,2013-05-01 23:38:00,
2013-05-01 19:43:00,65.8,43.9,28.05,NE,45,0.0,1.3,45,0.00,,,0.00,WSDL version 420,2013-05-01 23:43:00,
2013-05-01 19:48:00,65.7,43.8,28.05,NE,51,0.2,1.3,45,0.00,,,0.00,WSDL version 420,2013-05-01 23:48:00,
2013-05-01 19:53:00,65.5,43.7,28.05,NE,34,0.0,1.3,45,0.00,,,0.00,WSDL version 420,2013-05-01 23:53:00,
2013-05-01 19:58:00,65.4,43.5,28.05,NE,45,0.7,1.3,45,0.00,,,0.00,WSDL version 420,2013-05-01 23:58:00,
2013-05-01 20:03:00,65.2,43.4,28.05,NE,56,0.0,1.3,45,0.00,,,0.00,WSDL version 420,2013-05-02 00:03:00,
2013-05-01 20:08:00,65.1,43.3,28.05,NE,38,0.0,0.9,45,0.00,,,0.00,WSDL version 420,2013-05-02 00:08:00,
2013-05-01 20:13:00,65.0,43.5,28.05,East,98,0.0,0.0,46,0.00,,,0.00,WSDL version 420,2013-05-02 00:13:00,
2013-05-01 20:18:00,64.9,43.6,28.08,ESE,113,0.0,0.0,46,0.00,,,0.00,WSDL version 420,2013-05-02 00:18:00,
2013-05-01 20:23:00,64.8,43.5,28.08,ENE,60,0.0,0.0,46,-99.99,,,-99.99,WSDL version 420,2013-05-02 00:23:00,
2013-05-01 20:28:00,64.8,43.5,28.08,NNE,23,0.0,0.0,46,0.00,,,0.00,WSDL version 420,2013-05-02 00:28:00,
2013-05-01 20:33:00,64.6,43.4,28.08,East,90,0.0,0.0,46,0.00,,,0.00,WSDL version 420,2013-05-02 00:33:00,
2013-05-01 20:38:00,64.6,43.4,28.08,ENE,68,0.0,0.0,46,0.00,,,0.00,WSDL version 420,2013-05-02 00:38:00,
2013-05-01 20:43:00,64.6,43.4,28.08,East,90,0.0,0.0,46,0.00,,,0.00,WSDL version 420,2013-05-02 00:43:00,
2013-05-01 20:48:00,64.6,43.4,28.08,SSE,158,0.0,0.0,46,0.00,,,0.00,WSDL version 420,2013-05-02 00:48:00,
2013-05-01 20:53:00,64.5,43.2,28.08,East,90,0.0,0.0,46,0.00,,,0.00,WSDL version 420,2013-05-02 00:53:00,
2013-05-01 20:58:00,64.4,43.2,28.08,NE,38,0.0,0.0,46,0.00,,,0.00,WSDL version 420,2013-05-02 00:58:00,
2013-05-01 21:03:00,64.3,43.3,28.08,ENE,60,0.0,0.0,47,0.00,,,0.00,WSDL version 420,2013-05-02 01:03:00,
2013-05-01 21:08:00,64.2,43.5,28.08,ENE,68,0.0,0.0,47,0.00,,,0.00,WSDL version 420,2013-05-02 01:08:00,
2013-05-01 21:13:00,64.0,43.4,28.08,NE,45,0.7,1.1,47,0.00,,,0.00,WSDL version 420,2013-05-02 01:13:00,
2013-05-01 21:18:00,64.0,43.4,28.08,ESE,120,0.0,1.1,47,0.00,,,0.00,WSDL version 420,2013-05-02 01:18:00,
2013-05-01 21:23:00,63.9,43.3,28.08,ENE,68,0.0,0.0,47,0.00,,,0.00,WSDL version 420,2013-05-02 01:23:00,
2013-05-01 21:28:00,63.7,43.5,28.08,ENE,68,0.0,1.3,48,0.00,,,0.00,WSDL version 420,2013-05-02 01:28:00,
2013-05-01 21:33:00,63.7,43.6,28.08,East,98,0.3,1.3,48,0.00,,,0.00,WSDL version 420,2013-05-02 01:33:00,
2013-05-01 21:38:00,63.6,43.5,28.08,ENE,68,0.0,1.1,48,0.00,,,0.00,WSDL version 420,2013-05-02 01:38:00,
2013-05-01 21:43:00,63.4,43.4,28.08,NE,56,0.7,1.3,48,0.00,,,0.00,WSDL version 420,2013-05-02 01:43:00,
2013-05-01 21:48:00,63.3,43.3,28.08,East,101,0.0,1.3,48,0.00,,,0.00,WSDL version 420,2013-05-02 01:48:00,
2013-05-01 21:53:00,63.3,43.8,28.08,ENE,68,0.0,1.1,49,0.00,,,0.00,WSDL version 420,2013-05-02 01:53:00,
2013-05-01 21:58:00,63.1,43.7,28.08,East,90,0.0,1.3,49,0.00,,,0.00,WSDL version 420,2013-05-02 01:58:00,
2013-05-01 22:03:00,63.0,43.6,28.08,NE,53,0.0,1.3,49,0.00,,,0.00,WSDL version 420,2013-05-02 02:03:00,
2013-05-01 22:08:00,63.0,43.5,28.08,ENE,68,0.0,1.3,49,0.00,,,0.00,WSDL version 420,2013-05-02 02:08:00,
2013-05-01 22:13:00,62.9,43.4,28.08,ENE,68,0.0,2.0,49,0.00,,,0.00,WSDL version 420,2013-05-02 02:13:00,
2013-05-01 22:18:00,62.7,43.3,28.11,NNE,30,0.0,2.0,49,0.00,,,0.00,WSDL version 420,2013-05-02 02:18:00,
2013-05-01 22:23:00,62.4,43.4,28.11,NNE,23,0.0,0.0,50,0.00,,,0.00,WSDL version 420,2013-05-02 02:23:00,
2013-05-01 22:28:00,62.2,43.4,28.11,NNE,23,0.0,0.0,50,0.00,,,0.00,WSDL version 420,2013-05-02 02:28:00,
2013-05-01 22:33:00,62.2,43.4,28.11,ENE,68,0.0,0.0,50,0.00,,,0.00,WSDL version 420,2013-05-02 02:33:00,
2013-05-01 22:38:00,62.2,43.8,28.11,ENE,68,0.0,0.0,51,0.00,,,0.00,WSDL version 420,2013-05-02 02:38:00,
2013-05-01 22:43:00,62.1,43.7,28.11,SE,135,1.5,2.0,51,0.00,,,0.00,WSDL version 420,2013-05-02 02:43:00,
2013-05-01 22:48:00,61.9,43.6,28.11,ENE,68,1.1,2.0,51,0.00,,,0.00,WSDL version 420,2013-05-02 02:48:00,
2013-05-01 22:53:00,61.9,43.6,28.11,ENE,68,1.1,1.1,51,0.00,,,0.00,WSDL version 420,2013-05-02 02:53:00,
2013-05-01 22:58:00,61.7,43.7,28.11,NNE,23,0.0,1.1,52,0.00,,,0.00,WSDL version 420,2013-05-02 02:58:00,
2013-05-01 23:03:00,61.7,43.9,28.11,East,90,2.7,2.7,52,0.00,,,0.00,WSDL version 420,2013-05-02 03:03:00,
2013-05-01 23:08:00,61.5,43.7,28.11,SSW,203,3.8,3.8,52,0.00,,,0.00,WSDL version 420,2013-05-02 03:08:00,
2013-05-01 23:13:00,61.3,43.6,28.11,East,90,0.0,3.8,52,0.00,,,0.00,WSDL version 420,2013-05-02 03:13:00,
2013-05-01 23:18:00,61.3,43.5,28.11,ENE,68,0.0,0.0,52,0.00,,,0.00,WSDL version 420,2013-05-02 03:18:00,
2013-05-01 23:23:00,61.2,43.4,28.11,ENE,68,0.0,0.0,52,0.00,,,0.00,WSDL version 420,2013-05-02 03:23:00,
2013-05-01 23:28:00,61.0,43.3,28.11,East,83,0.0,0.0,52,0.00,,,0.00,WSDL version 420,2013-05-02 03:28:00,
2013-05-01 23:33:00,61.0,43.6,28.11,East,90,0.0,0.0,53,0.00,,,0.00,WSDL version 420,2013-05-02 03:33:00,
2013-05-01 23:38:00,60.7,43.5,28.11,East,90,0.0,0.0,53,0.00,,,0.00,WSDL version 420,2013-05-02 03:38:00,
2013-05-01 23:43:00,60.6,43.4,28.11,North,-999,-999.0,-999.0,53,0.00,,,0.00,WSDL version 420,2013-05-02 03:43:00,
2013-05-01 23:48:00,60.4,43.2,28.11,North,-999,-999.0,-999.0,53,0.00,,,0.00,WSDL version 420,2013-05-02 03:48:00,
2013-05-01 23:53:00,60.3,43.1,28.11,ESE,113,0.0,0.0,53,0.00,,,0.00,WSDL version 420,2013-05-02 03:53:00,
2013-05-01 23:58:00,60.3,43.1,28.11,ESE,113,0.0,0.0,53,0.00,,,0.00,WSDL version 420,2013-05-02 03:58:00,